| time (UTC) | temp F | wind direction | speed knots | gust knots | rain 1hr in | rain 24hr in | rain mn in | humidity % | barometer mb |
| 20260901190105 | 88 | 178 | 0.9 | 5.2 | 0.00 | 0.00 | 0.00 | 35 | 1014.5 |
| 20260901184546 | 86 | 127 | 3.5 | 7.8 | 0.00 | 0.00 | 0.00 | 39 | 1014.7 |
| 20260901183042 | 86 | 209 | 2.6 | 7.0 | 0.00 | 0.00 | 0.00 | 42 | 1014.8 |
| 20260901181539 | 85 | 201 | 2.6 | 5.2 | 0.00 | 0.00 | 0.00 | 44 | 1014.9 |
| 20260901180037 | 82 | 163 | 1.7 | 6.1 | 0.00 | 0.00 | 0.00 | 52 | 1015.0 |
| 20260901174536 | 82 | 280 | 1.7 | 4.3 | 0.00 | 0.00 | 0.00 | 55 | 1015.2 |
| 20260901173029 | 78 | 42 | 1.7 | 4.3 | 0.00 | 0.00 | 0.00 | 60 | 1015.2 |
| 20260901171527 | 78 | 122 | 3.5 | 6.1 | 0.00 | 0.00 | 0.00 | 61 | 1015.2 |
| 20260901170020 | 77 | 252 | 1.7 | 4.3 | 0.00 | 0.00 | 0.00 | 66 | 1015.3 |
| 20260901164517 | 76 | 301 | 0.9 | 5.2 | 0.00 | 0.00 | 0.00 | 67 | 1015.2 |
| 20260901163022 | 75 | 203 | 0.9 | 3.5 | 0.00 | 0.00 | 0.00 | 70 | 1015.1 |
| 20260901161511 | 73 | 185 | 1.7 | 5.2 | 0.00 | 0.00 | 0.00 | 74 | 1014.9 |
| 20260901160005 | 73 | 230 | 0.9 | 2.6 | 0.00 | 0.00 | 0.00 | 75 | 1014.8 |
| 20260901154601 | 71 | 144 | 0.9 | 3.5 | 0.00 | 0.00 | 0.00 | 79 | 1014.7 |
| 20260901153055 | 69 | 67 | 0.0 | 0.0 | 0.00 | 0.00 | 0.00 | 83 | 1014.7 |
| 20260901151551 | 67 | 95 | 0.0 | 0.0 | 0.00 | 0.00 | 0.00 | 86 | 1014.6 |
| 20260901150048 | 66 | 144 | 0.0 | 0.0 | 0.00 | 0.00 | 0.00 | 88 | 1014.7 |
| 20260901144543 | 65 | 32 | 0.0 | 0.0 | 0.00 | 0.00 | 0.00 | 89 | 1014.7 |
| 20260901143039 | 64 | 88 | 0.0 | 0.0 | 0.00 | 0.00 | 0.00 | 89 | 1014.5 |
| 20260901141534 | 63 | 44 | 0.0 | 0.0 | 0.00 | 0.00 | 0.00 | 89 | 1014.4 |
| 20260901140031 | 62 | 44 | 0.0 | 0.0 | 0.00 | 0.00 | 0.00 | 88 | 1014.4 |
| 20260901134527 | 62 | 44 | 0.0 | 0.0 | 0.00 | 0.00 | 0.00 | 88 | 1014.4 |
| 20260901133032 | 62 | 44 | 0.0 | 0.0 | 0.00 | 0.00 | 0.00 | 88 | 1014.1 |
| 20260901131524 | 62 | 65 | 0.0 | 1.7 | 0.00 | 0.00 | 0.00 | 88 | 1014.0 |
| 20260901130023 | 62 | 9 | 0.0 | 3.5 | 0.00 | 0.00 | 0.00 | 88 | 1013.9 |
| 20260901124523 | 62 | 7 | 0.0 | 1.7 | 0.00 | 0.00 | 0.00 | 88 | 1013.9 |
| 20260901123024 | 63 | 11 | 0.0 | 1.7 | 0.00 | 0.00 | 0.00 | 87 | 1014.0 |
| 20260901121523 | 63 | 2 | 0.0 | 0.0 | 0.00 | 0.00 | 0.00 | 87 | 1013.9 |
| 20260901120021 | 63 | 26 | 0.0 | 0.0 | 0.00 | 0.00 | 0.00 | 87 | 1013.9 |
| 20260901114518 | 63 | 34 | 0.0 | 0.0 | 0.00 | 0.00 | 0.00 | 87 | 1013.9 |
| 20260901113017 | 63 | 34 | 0.0 | 0.0 | 0.00 | 0.00 | 0.00 | 86 | 1013.8 |
| 20260901111516 | 64 | 34 | 0.0 | 0.0 | 0.00 | 0.00 | 0.00 | 86 | 1013.7 |
| 20260901110014 | 64 | 34 | 0.0 | 0.0 | 0.00 | 0.00 | 0.00 | 86 | 1013.7 |
| 20260901104530 | 64 | 34 | 0.0 | 0.0 | 0.00 | 0.00 | 0.00 | 85 | 1013.7 |
| 20260901103012 | 64 | 34 | 0.0 | 0.0 | 0.00 | 0.00 | 0.00 | 85 | 1013.7 |
| 20260901101518 | 64 | 34 | 0.0 | 0.0 | 0.00 | 0.00 | 0.00 | 85 | 1013.9 |
| 20260901100010 | 65 | 34 | 0.0 | 0.0 | 0.00 | 0.00 | 0.00 | 84 | 1013.9 |
| 20260901094509 | 65 | 34 | 0.0 | 0.0 | 0.00 | 0.00 | 0.00 | 84 | 1014.0 |
| 20260901093008 | 65 | 34 | 0.0 | 0.0 | 0.00 | 0.00 | 0.00 | 84 | 1013.9 |
| 20260901091506 | 65 | 59 | 0.0 | 0.0 | 0.00 | 0.00 | 0.00 | 83 | 1013.6 |
| 20260901090008 | 66 | 59 | 0.0 | 0.0 | 0.00 | 0.00 | 0.00 | 82 | 1013.8 |
| 20260901084505 | 66 | 59 | 0.0 | 0.0 | 0.00 | 0.00 | 0.00 | 81 | 1013.7 |
| 20260901083100 | 66 | 30 | 0.0 | 0.0 | 0.00 | 0.00 | 0.00 | 81 | 1013.7 |
| 20260901081555 | 66 | 81 | 0.0 | 0.0 | 0.00 | 0.00 | 0.00 | 80 | 1013.9 |
| 20260901080053 | 67 | 81 | 0.0 | 0.0 | 0.00 | 0.00 | 0.00 | 80 | 1014.1 |
| 20260901074553 | 67 | 81 | 0.0 | 0.0 | 0.00 | 0.00 | 0.00 | 79 | 1014.0 |
| 20260901073050 | 67 | 81 | 0.0 | 0.0 | 0.00 | 0.00 | 0.00 | 79 | 1014.0 |
| 20260901071601 | 68 | 81 | 0.0 | 0.0 | 0.00 | 0.00 | 0.00 | 78 | 1014.0 |
| 20260901070045 | 69 | 95 | 0.0 | 1.7 | 0.00 | 0.00 | 0.00 | 78 | 1014.0 |
| 20260901064544 | 69 | 215 | 0.0 | 1.7 | 0.00 | 0.00 | 0.00 | 79 | 1013.9 |
| 20260901063043 | 69 | 149 | 0.0 | 3.5 | 0.00 | 0.00 | 0.00 | 77 | 1014.0 |
| 20260901061544 | 69 | 149 | 0.0 | 0.9 | 0.00 | 0.00 | 0.00 | 75 | 1013.8 |
| 20260901060040 | 69 | 149 | 0.0 | 0.0 | 0.00 | 0.00 | 0.00 | 74 | 1013.8 |
| 20260901054540 | 70 | 149 | 0.0 | 1.7 | 0.00 | 0.00 | 0.00 | 73 | 1013.6 |
| 20260901053041 | 70 | 149 | 0.0 | 0.0 | 0.00 | 0.00 | 0.00 | 72 | 1013.5 |
| 20260901051540 | 71 | 149 | 0.0 | 0.0 | 0.00 | 0.00 | 0.00 | 71 | 1013.6 |
| 20260901050038 | 71 | 149 | 0.0 | 0.0 | 0.00 | 0.00 | 0.00 | 71 | 1013.4 |
| 20260901044537 | 72 | 149 | 0.0 | 0.0 | 0.00 | 0.00 | 0.00 | 70 | 1013.5 |
| 20260901043046 | 73 | 197 | 0.0 | 0.0 | 0.00 | 0.00 | 0.00 | 70 | 1013.4 |
| 20260901041536 | 73 | 215 | 0.0 | 0.0 | 0.00 | 0.00 | 0.00 | 69 | 1013.4 |
| 20260901040035 | 74 | 197 | 0.0 | 0.9 | 0.00 | 0.00 | 0.00 | 69 | 1013.6 |
| 20260901034545 | 74 | 222 | 0.0 | 0.9 | 0.00 | 0.00 | 0.00 | 68 | 1013.4 |
| 20260901033048 | 74 | 213 | 0.0 | 0.9 | 0.00 | 0.00 | 0.00 | 67 | 1013.1 |
| 20260901031558 | 75 | 213 | 0.0 | 1.7 | 0.00 | 0.00 | 0.00 | 65 | 1013.0 |
| 20260901030036 | 76 | 236 | 0.0 | 4.3 | 0.00 | 0.00 | 0.00 | 63 | 1012.8 |
| 20260901024531 | 77 | 210 | 0.9 | 4.3 | 0.00 | 0.00 | 0.00 | 60 | 1012.6 |
| 20260901023031 | 78 | 237 | 1.7 | 4.3 | 0.00 | 0.00 | 0.00 | 58 | 1012.4 |
| 20260901021528 | 79 | 172 | 0.9 | 4.3 | 0.00 | 0.00 | 0.00 | 55 | 1012.1 |
| 20260901020033 | 80 | 260 | 1.7 | 6.1 | 0.00 | 0.00 | 0.00 | 53 | 1012.0 |
| 20260901014527 | 81 | 196 | 0.9 | 7.0 | 0.00 | 0.00 | 0.00 | 51 | 1011.9 |
| 20260901013034 | 82 | 237 | 1.7 | 5.2 | 0.00 | 0.00 | 0.00 | 49 | 1011.8 |
| 20260901011524 | 83 | 191 | 0.9 | 7.0 | 0.00 | 0.00 | 0.00 | 48 | 1011.8 |
| 20260901010030 | 84 | 205 | 1.7 | 6.1 | 0.00 | 0.00 | 0.00 | 47 | 1011.8 |
| 20260901004524 | 85 | 207 | 2.6 | 6.1 | 0.00 | 0.00 | 0.00 | 46 | 1011.7 |
| 20260901003020 | 86 | 251 | 1.7 | 7.0 | 0.00 | 0.00 | 0.00 | 46 | 1011.7 |
| 20260901001625 | 87 | 172 | 1.7 | 7.0 | 0.00 | 0.00 | 0.00 | 46 | 1011.7 |
| 20260901000016 | 87 | 256 | 2.6 | 7.8 | 0.00 | 0.00 | 0.00 | 45 | 1011.8 |
| 20260831234516 | 87 | 95 | 1.7 | 9.6 | 0.00 | 0.00 | 0.00 | 45 | 1011.8 |
| 20260831233015 | 87 | 189 | 3.5 | 10.4 | 0.00 | 0.00 | 0.00 | 44 | 1011.8 |
| 20260831231513 | 88 | 176 | 3.5 | 9.6 | 0.00 | 0.00 | 0.00 | 42 | 1011.9 |
| 20260831230013 | 89 | 242 | 4.3 | 8.7 | 0.00 | 0.00 | 0.00 | 41 | 1012.0 |
| 20260831224513 | 89 | 267 | 5.2 | 9.6 | 0.00 | 0.00 | 0.00 | 40 | 1012.2 |
| 20260831223012 | 89 | 253 | 3.5 | 11.3 | 0.00 | 0.00 | 0.00 | 38 | 1012.1 |
| 20260831221511 | 90 | 122 | 6.1 | 11.3 | 0.00 | 0.00 | 0.00 | 37 | 1012.3 |
| 20260831220012 | 90 | 243 | 5.2 | 11.3 | 0.00 | 0.00 | 0.00 | 38 | 1012.3 |
| 20260831214511 | 90 | 178 | 4.3 | 9.6 | 0.00 | 0.00 | 0.00 | 39 | 1012.3 |
| 20260831213013 | 90 | 242 | 5.2 | 10.4 | 0.00 | 0.00 | 0.00 | 38 | 1012.2 |
| 20260831211509 | 91 | 215 | 2.6 | 9.6 | 0.00 | 0.00 | 0.00 | 38 | 1012.3 |
| 20260831210008 | 90 | 169 | 4.3 | 10.4 | 0.00 | 0.00 | 0.00 | 39 | 1012.7 |
| 20260831204508 | 91 | 190 | 3.5 | 8.7 | 0.00 | 0.00 | 0.00 | 39 | 1012.6 |
| 20260831203007 | 91 | 203 | 0.9 | 7.0 | 0.00 | 0.00 | 0.00 | 39 | 1012.6 |
| 20260831201505 | 90 | 176 | 5.2 | 12.2 | 0.00 | 0.00 | 0.00 | 39 | 1012.7 |
| 20260831200004 | 90 | 184 | 2.6 | 7.8 | 0.00 | 0.00 | 0.00 | 38 | 1012.7 |
| 20260831194504 | 91 | 163 | 1.7 | 7.0 | 0.00 | 0.00 | 0.00 | 37 | 1012.8 |
| 20260831193001 | 90 | 174 | 5.2 | 10.4 | 0.00 | 0.00 | 0.00 | 39 | 1013.0 |
| 20260831191604 | 90 | 180 | 3.5 | 7.8 | 0.00 | 0.00 | 0.00 | 41 | 1013.1 |